Theta_e
348 347 344 348 348 353 346 348 348 343 337 344 346 346 347 347 351 350 351 353 351 350 349 349 349 348 349 350 346 347 347 347 346 345 346 346 344 343 342 338 340 345 345
347 344 345 347 348 348 349 349 346 344 345 343 347 347 347 353 354 352 349 349 354 353 349 350 351 349 349 352 351 351 350 348 349 346 344 344 346 343 342 343 339 340 343
344 346 350 350 353 349 352 350 350 349 347 346 346 348 354 356 352 353 353 350 349 351 343 342 343 346 349 351 349 348 347 346 348 348 348 345 346 344 344 344 341 339 338
343 348 354 353 352 353 353 351 354 352 353 351 351 353 354 354 352 353 350 353 344 346 345 348 347 350 348 347 345 343 344 345 345 345 344 345 345 345 343 343 344 343 343
348 350 354 354 352 352 355 355 356 356 355 353 353 354 351 350 351 353 349 339 342 343 342 344 346 349 349 343 344 342 342 342 341 341 344 344 345 345 344 342 341 342 343
347 351 349 355 356 353 354 357 355 356 354 352 350 351 352 350 354 354 340 343 338 337 335 333 336 340 342 344 344 342 340 342 342 342 340 342 343 344 344 343 343 343 344
349 350 342 341 357 356 353 355 355 356 351 353 353 354 351 348 350 351 339 339 341 342 334 332 336 338 340 342 342 341 344 345 344 344 341 340 341 341 341 341 342 341 341
351 349 350 350 347 356 355 353 353 353 356 351 352 353 353 349 350 338 339 339 343 345 340 341 339 337 334 332 332 333 336 344 344 343 342 341 340 337 336 337 337 337 338
351 351 351 351 347 355 355 352 351 350 350 349 354 353 346 349 346 338 340 341 346 344 337 343 343 339 336 333 324 320 323 332 340 343 342 341 337 338 341 340 340 339 338
350 351 349 349 348 350 347 348 352 350 354 354 352 349 348 347 338 340 341 342 345 344 340 342 342 338 334 326 319 319 320 322 334 340 340 335 340 339 340 342 341 340 340
348 352 351 350 347 347 344 346 351 353 358 355 352 349 351 344 339 341 342 342 341 339 336 336 335 333 328 320 320 320 321 321 324 327 334 339 338 339 340 339 338 337 338
350 353 353 350 346 346 346 348 349 354 358 357 354 350 351 341 340 341 342 341 339 338 336 333 330 324 319 318 315 315 319 323 326 330 335 336 336 336 335 335 334 335 337
356 357 355 351 351 349 348 347 352 359 358 356 352 352 350 343 340 342 343 342 340 338 332 327 322 320 317 313 311 312 317 322 326 330 331 332 332 333 332 331 332 332 333
360 360 359 356 354 354 350 352 356 361 359 357 353 353 349 340 340 342 343 342 340 334 327 322 322 319 315 313 313 313 312 315 319 321 322 323 324 323 323 324 325 324 325
360 361 360 357 356 356 359 360 363 360 357 355 353 350 344 338 340 342 343 342 339 330 325 320 324 321 316 317 318 317 312 312 315 315 316 316 315 315 317 318 319 318 321
356 358 357 357 355 356 359 363 363 360 359 357 354 350 339 342 346 342 342 340 335 327 321 323 327 325 322 320 318 315 312 311 312 313 313 312 311 312 313 312 312 313 311
355 357 357 358 358 358 365 365 361 359 356 357 353 346 343 346 348 345 343 340 333 323 319 325 327 325 321 316 315 313 311 310 310 309 312 312 314 314 316 315 314 314 310
359 356 358 361 362 360 363 357 353 350 346 350 348 350 351 349 348 345 343 340 332 320 320 322 323 320 314 313 312 311 312 312 311 311 314 313 312 310 311 312 311 310 308
358 361 363 360 358 359 355 351 349 349 346 348 351 349 348 348 347 344 341 338 327 319 320 321 320 316 315 314 314 313 310 310 310 310 313 313 310 308 307 308 307 307 308
358 359 362 365 363 360 353 351 350 350 348 348 348 347 346 346 344 342 339 335 323 322 321 319 318 317 316 314 314 312 311 311 309 307 306 307 305 304 305 306 306 306 308
351 355 358 359 359 354 350 348 349 348 347 346 346 346 345 344 343 340 337 328 323 321 320 319 319 317 315 312 311 312 311 308 303 306 306 302 301 302 302 304 305 306 306
351 342 343 348 349 349 344 342 344 345 344 342 341 340 342 342 338 336 333 325 320 319 319 319 318 316 312 311 313 313 308 306 307 307 304 300 299 299 300 301 303 305 306
343 337 339 343 344 345 344 340 339 339 338 338 336 337 338 338 336 334 330 326 322 319 318 317 316 313 311 314 313 310 306 304 304 303 299 299 299 298 298 299 303 305 305
341 340 339 339 342 342 341 340 340 337 337 337 335 335 338 337 334 332 329 326 324 320 319 317 314 311 311 312 311 309 304 304 303 300 299 299 298 297 298 302 303 303 303
343 341 339 343 345 345 343 344 344 342 341 341 342 341 339 337 331 329 327 325 323 320 318 316 311 310 310 309 308 305 303 302 301 300 298 298 298 297 299 301 302 301 300
349 342 341 342 346 346 346 345 345 345 344 345 343 341 339 336 333 329 326 325 322 319 316 313 310 308 306 306 305 303 302 301 300 299 298 297 297 297 299 300 299 298 299
Wind_Speed
24 21 23 23 21 21 16 10 10 6 6 17 16 15 11 10 8 8 9 5 8 9 9 11 10 11 12 12 12 13 13 10 11 11 12 14 18 17 11 8 10 16 12
19 21 20 20 21 25 21 12 6 9 8 10 11 11 12 9 8 8 9 10 10 9 8 8 9 10 11 10 10 10 12 12 13 15 12 9 8 7 6 6 8 12 15
22 23 18 20 19 22 25 17 9 6 8 8 10 10 8 9 8 7 9 8 7 8 4 6 7 7 6 6 8 10 8 7 8 10 10 7 9 10 10 10 8 11 14
25 23 22 18 19 19 18 19 14 12 11 9 10 9 11 9 9 9 9 7 3 1 5 6 5 6 7 6 8 9 7 6 7 8 9 8 7 8 10 12 13 13 12
25 26 25 21 17 22 20 18 20 16 14 10 12 11 9 11 8 7 5 4 1 4 8 9 12 11 10 11 10 8 8 9 9 8 6 8 9 11 10 9 13 15 17
27 26 22 23 21 20 25 22 20 22 20 15 14 13 12 11 7 8 7 5 3 8 10 11 11 12 10 7 5 9 9 9 9 9 9 10 10 10 12 13 15 15 18
33 31 27 15 29 25 25 26 23 21 18 16 15 14 14 11 12 10 10 5 4 7 6 5 5 6 7 5 7 7 8 9 8 8 6 5 7 9 11 12 12 13 16
39 34 33 31 27 29 28 28 25 22 20 17 17 16 14 15 13 13 11 6 5 6 8 8 6 8 8 6 8 8 8 6 5 7 7 6 7 9 12 13 15 15 14
42 38 36 35 33 31 30 29 28 25 23 17 16 14 15 15 15 13 10 5 5 7 9 11 10 12 13 14 16 12 10 9 6 6 8 8 9 7 8 11 11 13 14
42 39 36 37 36 33 28 27 29 24 24 20 19 17 16 17 18 15 12 8 5 9 8 10 13 14 18 20 19 13 9 9 11 10 10 7 8 10 9 11 10 11 12
40 37 38 38 37 32 26 25 26 24 25 23 23 20 22 19 19 17 15 10 9 11 13 13 15 17 20 18 14 13 10 5 5 4 5 5 6 4 3 7 9 10 10
35 35 38 39 39 33 26 27 25 24 27 27 26 25 24 22 20 19 16 15 13 12 13 12 14 16 13 12 10 8 6 6 5 7 8 8 10 10 10 12 13 11 9
28 29 33 36 36 33 30 32 29 29 30 31 30 29 26 24 23 20 18 17 14 10 10 11 11 10 9 8 7 7 6 2 5 7 9 11 13 15 17 17 15 15 12
24 27 30 33 33 32 32 33 31 33 35 34 33 30 27 26 24 22 19 16 13 10 9 6 4 5 5 8 7 9 8 6 4 4 4 5 6 6 6 9 11 13 10
21 24 28 31 32 33 32 34 34 35 37 36 34 31 30 26 24 20 18 14 11 8 8 6 3 2 3 6 9 11 8 6 5 5 4 5 6 5 5 7 8 10 10
22 25 28 30 32 38 38 37 36 35 35 33 30 30 28 20 15 16 15 12 9 9 10 9 6 5 5 8 10 10 8 8 7 6 6 6 6 8 10 11 10 12 12
20 24 24 27 35 39 40 38 41 37 28 32 26 28 25 20 20 18 16 12 11 11 12 11 11 10 10 9 8 5 6 5 6 6 7 9 9 10 10 12 13 14 14
18 19 24 31 35 39 41 34 34 33 38 41 32 29 30 27 21 20 19 17 14 12 15 13 14 13 9 8 8 4 3 6 8 5 6 9 9 8 7 9 11 14 15
24 24 27 31 34 37 39 40 39 41 40 42 43 37 33 30 28 26 22 17 14 14 15 14 13 10 7 6 5 3 3 4 4 4 5 10 12 10 9 10 11 11 9
23 30 30 31 33 39 39 43 43 43 43 45 42 36 37 35 31 28 22 18 17 16 14 14 14 11 9 7 7 7 6 6 7 9 11 11 12 10 10 10 13 11 8
22 26 29 29 30 28 30 35 46 47 43 40 36 33 31 28 27 25 21 19 19 19 20 17 15 13 11 10 10 8 5 9 10 8 9 12 13 11 11 12 12 11 12
23 18 20 22 21 24 18 11 20 34 27 19 16 17 22 25 25 22 21 20 22 22 22 20 19 15 12 11 8 8 8 9 8 10 12 13 12 13 13 11 9 9 11
20 16 13 17 20 25 26 16 10 11 25 19 17 18 19 28 28 26 23 22 22 25 24 20 18 17 14 15 14 12 8 9 10 11 12 12 12 13 12 10 6 9 13
21 19 15 16 17 18 25 26 32 39 36 35 33 29 25 26 29 27 27 26 23 24 22 21 20 20 19 18 16 12 9 9 11 12 13 12 11 11 8 6 8 13 15
21 23 20 23 22 20 21 26 28 32 34 35 31 28 28 28 32 29 31 29 27 25 21 21 20 20 20 17 15 12 9 10 11 13 12 11 9 8 8 9 12 15 14
24 26 25 27 25 21 23 24 30 32 34 37 37 35 35 34 33 33 33 31 28 24 22 21 20 21 20 18 16 12 12 11 11 11 10 9 8 8 10 10 11 13 12
Wind_Direction
209 211 209 203 191 203 213 211 226 229 129 145 154 166 189 199 219 216 223 242 251 254 256 263 277 281 278 273 271 275 267 278 278 282 294 303 305 322 333 228 274 237 249
214 207 205 201 196 198 211 199 215 196 171 172 169 181 197 185 200 200 220 237 260 273 281 281 285 284 285 286 276 278 274 276 278 277 276 304 323 347 337 287 296 281 266
208 207 201 203 197 190 205 213 192 180 193 187 188 192 199 209 209 233 238 260 263 289 322 350 331 303 286 295 302 302 297 286 263 276 286 280 290 308 305 296 293 283 275
202 203 206 209 209 203 190 206 203 204 220 211 202 201 208 211 226 233 246 245 232 312 326 311 300 296 288 285 301 306 304 302 303 290 283 260 280 286 285 275 269 278 263
198 202 208 212 209 208 209 199 208 212 227 233 223 219 214 221 214 219 232 191 212 294 301 296 292 285 285 294 295 286 297 302 301 296 282 250 265 267 286 286 273 269 271
197 195 200 212 217 209 205 210 206 214 228 222 222 218 222 210 202 209 194 210 296 339 317 305 292 274 283 294 275 302 294 300 296 294 278 268 263 264 275 279 279 277 279
199 199 197 204 213 219 210 207 212 214 216 221 218 210 211 209 210 212 216 239 299 358 353 349 4 353 347 314 298 296 299 302 295 300 318 307 278 282 291 292 293 295 294
203 206 210 217 214 217 212 212 215 216 213 212 213 212 211 210 204 201 211 242 297 331 332 345 346 350 342 322 322 310 301 304 295 303 305 305 308 323 310 302 301 299 293
206 207 211 215 212 214 217 216 216 214 212 212 210 209 193 206 198 198 207 248 261 301 324 310 315 324 328 327 323 312 287 280 251 260 284 306 308 294 303 311 306 310 308
213 213 214 213 214 213 218 218 219 216 217 210 210 199 200 210 198 196 203 230 215 246 288 292 299 307 321 323 324 320 308 277 261 260 278 290 292 311 279 290 307 307 306
220 217 215 218 221 219 222 219 213 214 208 202 208 205 203 205 204 202 203 212 225 255 281 283 295 310 315 318 321 317 313 295 253 241 216 236 269 297 281 317 318 331 327
220 221 218 219 219 218 220 213 206 207 201 200 207 208 204 203 204 210 212 217 231 265 288 292 300 305 312 318 318 323 313 252 244 228 233 245 254 263 277 290 293 288 301
217 221 219 219 220 219 210 207 202 202 199 202 207 209 206 207 206 212 219 225 238 261 278 285 290 302 316 320 337 354 359 323 258 258 263 267 273 276 283 283 279 282 278
220 219 217 217 212 211 207 208 205 199 202 206 206 207 209 210 209 212 218 225 239 266 272 279 295 306 329 340 348 352 354 351 343 320 308 312 299 299 297 293 297 303 298
227 221 216 215 210 200 205 208 210 207 211 209 210 210 209 212 214 215 222 231 244 265 265 256 271 316 305 321 320 330 350 360 341 327 343 345 336 340 341 334 339 348 342
225 215 212 210 203 203 207 206 206 208 214 219 221 219 212 215 216 211 210 227 256 267 253 227 228 258 270 269 290 304 335 0 353 344 351 359 354 357 1 358 342 345 348
219 214 213 210 209 208 211 210 199 198 212 226 215 215 219 222 215 217 222 228 243 243 217 214 228 244 266 273 280 289 317 342 357 358 10 3 4 4 2 356 357 346 348
213 216 214 212 216 217 215 209 219 211 202 204 206 208 220 226 227 226 223 233 238 221 208 216 227 243 252 263 262 273 300 331 347 357 0 333 329 336 331 325 323 330 343
210 214 218 223 230 228 224 220 218 210 218 208 204 203 208 210 218 221 229 235 237 211 208 218 238 237 231 240 237 266 269 281 319 305 297 299 308 323 314 318 314 322 338
218 221 225 232 235 237 238 228 217 218 210 208 205 202 206 208 214 221 227 229 224 208 213 220 223 228 240 256 255 254 259 287 298 285 281 293 295 304 302 306 316 328 323
231 236 242 243 251 247 226 231 211 205 197 198 203 209 215 223 224 225 225 220 200 201 215 225 232 233 240 237 234 245 268 277 274 284 296 303 306 302 288 293 303 302 317
247 242 239 242 241 227 237 270 183 184 180 185 204 224 224 228 225 222 220 214 207 212 223 230 233 231 233 231 236 254 258 272 286 295 302 304 301 295 294 299 297 322 331
242 231 241 236 235 239 243 243 276 200 170 212 234 217 222 232 221 215 216 214 214 217 225 228 229 230 225 228 249 264 285 289 282 288 296 295 300 299 301 304 302 313 309
239 228 236 230 229 226 237 230 215 199 211 224 223 210 222 220 209 216 217 220 227 224 228 227 222 220 223 232 244 259 264 266 277 287 293 299 302 301 300 282 295 300 304
239 222 220 204 196 200 200 193 198 200 203 207 216 219 214 211 202 208 217 223 230 227 227 227 220 219 230 243 253 261 263 271 276 286 290 296 301 298 279 293 305 303 308
246 228 220 214 211 213 215 210 208 208 211 216 217 217 213 206 210 211 220 226 230 232 232 228 225 226 230 238 248 249 256 261 276 282 284 292 295 284 276 294 309 314 315